Flag for Germany Weather past 2 weeks in Lahr, Baden-Württemberg, Germany

Now
46 °F

Overcast.


Feels Like: 42 °F
Forecast: 36 / 46 °F
Wind: 8 mph from Southwest

Location: Lahr

Current Time: Dec 20, 2014 at 3:07:10 PM

Latest Report: Dec 20, 2014 at 2:00 PM


Visibility: 38 mi

Pressure: 30.35 "Hg

Humidity: 62%

Dew point: 34 °F

Location of LahrLocation

Historic Weather in Lahr — Graph

°F

Lahr temperature yesterday

Maximum temperature yesterday: 54 °F (at 11:00 AM)
Minimum temperature yesterday: 50 °F (at 10:00 PM)
Average temperature yesterday: 52 °F

Past Weeks' High & Low Weather Summary

 TemperatureHumidityPressure
High56 °F (Dec 18, 8:00 PM)100% (Dec 14, 5:00 PM)30.47 "Hg (Dec 14, 5:00 PM)
Low31 °F (Dec 9, 11:00 PM)52% (Dec 15, 3:00 PM)29.78 "Hg (Dec 12, 7:00 PM)
Average44 °F85%30.11 "Hg
* Reported Dec 5 1:00 PM — Dec 20 1:00 PM, Lahr, Weather by CustomWeather, © 2014

Note: Actual official high and low records may vary slightly from our data, if they occured in-between our weather recording intervals... More about our weather records

Advertising

Lahr weather history for previous 24 hours

 ConditionsComfort  
Time TempWeatherWind HumidityBarometerVisibility
1:00 PM
Dec 20
46 °FOvercast.6 mph72%30.37 "Hg37 mi
12:00 PM45 °FOvercast.6 mph68%30.37 "Hg40 mi
11:00 AM44 °FOvercast.6 mph73%30.40 "Hg37 mi
10:00 AM42 °FOvercast.3 mph74%30.41 "Hg28 mi
9:00 AM39 °FPassing clouds.3 mph81%30.39 "Hg18 mi
8:00 AM39 °FPassing clouds.2 mph79%30.39 "Hg40 mi
7:00 AM40 °FPassing clouds.3 mph74%30.37 "Hg37 mi
6:00 AM40 °FPassing clouds.1 mph81%30.37 "Hg40 mi
5:00 AM42 °FPassing clouds.3 mph73%30.35 "Hg43 mi
4:00 AM46 °FPassing clouds.3 mph74%30.34 "Hg43 mi
3:00 AM47 °FPassing clouds.6 mph73%30.31 "Hg43 mi
2:00 AM48 °FOvercast.2 mph76%30.29 "Hg43 mi
1:00 AM50 °FOvercast.5 mph69%30.28 "Hg43 mi
12:00 AM50 °FOvercast.2 mph85%30.26 "Hg43 mi
11:00 PM
Dec 19
50 °FOvercast.2 mph94%30.23 "Hg25 mi
10:00 PM50 °FLight rain. Low clouds.2 mph94%30.21 "Hg6 mi
9:00 PM51 °FLight rain. Overcast.6 mph89%30.16 "Hg16 mi
8:00 PM51 °FLight rain. Overcast.7 mph86%30.14 "Hg9 mi
7:00 PM52 °FRain. Overcast.9 mph80%30.12 "Hg18 mi
6:00 PM52 °FRain. Overcast.8 mph77%30.11 "Hg16 mi
5:00 PM52 °FRain. Overcast.8 mph77%30.11 "Hg16 mi
4:00 PM53 °FOvercast.9 mph73%30.12 "Hg17 mi
3:00 PM53 °FOvercast.9 mph71%30.11 "Hg47 mi
Weather by CustomWeather, © 2014

See weather overviewHow to use our weather pages